When you browse on this site, cookies collect data to enhance your experience and personalize the content and advertising you see.
Visit our Privacy Policy to learn more. By continuing to use the site, you agree to this use of cookies and data.
  • In Spain
  • List of Countries
  • For 7 days
  • Water Temperature
  • Weather Map
  • Weather Widgets
  • user-avatar
    Login

    Hourly Weather Berlin

    Today, 26 May, Tuesday

    Time Temperature Precipitation Wind Pressure Humidity
    00:00 +10°C° 0 mm 1 mps 770 mmHg 93%
    01:00 +9°C° 0 mm 2 mps 770 mmHg 95%
    02:00 +8°C° 0 mm 2 mps 770 mmHg 95%
    03:00 +8°C° 0 mm 2 mps 771 mmHg 95%
    04:00 +9°C° 0 mm 1 mps 771 mmHg 95%
    05:00 +9°C° 0 mm 2 mps 771 mmHg 91%
    06:00 +10°C° 0 mm 2 mps 771 mmHg 88%
    07:00 +13°C° 0 mm 2 mps 771 mmHg 84%
    08:00 +14°C° 0 mm 2 mps 772 mmHg 75%
    09:00 +16°C° 0 mm 2 mps 772 mmHg 66%
    10:00 +17°C° 0 mm 3 mps 772 mmHg 57%
    11:00 +18°C° 0 mm 3 mps 772 mmHg 53%
    12:00 +19°C° 0 mm 3 mps 772 mmHg 48%
    13:00 +20°C° 0 mm 3 mps 771 mmHg 44%
    14:00 +20°C° 0 mm 3 mps 771 mmHg 44%
    15:00 +20°C° 0 mm 3 mps 771 mmHg 43%
    16:00 +21°C° 0 mm 3 mps 771 mmHg 43%
    17:00 +20°C° 0 mm 2 mps 771 mmHg 49%
    18:00 +19°C° 0 mm 2 mps 771 mmHg 55%
    19:00 +17°C° 0 mm 2 mps 771 mmHg 61%
    20:00 +16°C° 0 mm 2 mps 771 mmHg 65%
    21:00 +14°C° 0 mm 2 mps 771 mmHg 69%
    22:00 +12°C° 0 mm 2 mps 771 mmHg 72%
    23:00 +12°C° 0 mm 1 mps 771 mmHg 75%

    Tomorrow, 27 May, Wednesday

    Time Temperature Precipitation Wind Pressure Humidity
    00:00 +11°C° 0 mm 1 mps 771 mmHg 77%
    01:00 +11°C° 0 mm 1 mps 772 mmHg 80%
    02:00 +10°C° 0 mm 0 mps 771 mmHg 81%
    03:00 +9°C° 0 mm 0 mps 771 mmHg 82%
    04:00 +9°C° 0 mm 0 mps 771 mmHg 83%
    05:00 +11°C° 0 mm 0 mps 771 mmHg 77%
    06:00 +12°C° 0 mm 0 mps 771 mmHg 72%
    07:00 +14°C° 0 mm 0 mps 771 mmHg 66%
    08:00 +18°C° 0 mm 1 mps 771 mmHg 61%
    09:00 +19°C° 0 mm 1 mps 770 mmHg 57%
    10:00 +21°C° 0 mm 1 mps 770 mmHg 52%
    11:00 +21°C° 0.1 mm 2 mps 770 mmHg 52%
    12:00 +21°C° 0.1 mm 2 mps 769 mmHg 51%
    13:00 +22°C° 0.1 mm 3 mps 769 mmHg 50%
    14:00 +22°C° 0.1 mm 3 mps 769 mmHg 49%
    15:00 +22°C° 0.1 mm 4 mps 768 mmHg 47%
    16:00 +22°C° 0.1 mm 4 mps 768 mmHg 45%
    17:00 +20°C° 0.1 mm 4 mps 768 mmHg 53%
    18:00 +19°C° 0.1 mm 4 mps 768 mmHg 61%
    19:00 +18°C° 0.1 mm 3 mps 768 mmHg 69%
    20:00 +16°C° 0 mm 3 mps 768 mmHg 73%
    21:00 +14°C° 0 mm 3 mps 769 mmHg 77%
    22:00 +12°C° 0 mm 3 mps 769 mmHg 82%
    23:00 +12°C° 0 mm 3 mps 769 mmHg 81%

    Day after tomorrow, 28 May, Thursday

    Time Temperature Precipitation Wind Pressure Humidity
    00:00 +11°C° 0 mm 3 mps 769 mmHg 80%
    01:00 +11°C° 0 mm 3 mps 769 mmHg 79%
    02:00 +10°C° 0 mm 3 mps 769 mmHg 81%
    03:00 +9°C° 0 mm 3 mps 769 mmHg 83%
    04:00 +8°C° 0 mm 3 mps 769 mmHg 85%
    05:00 +9°C° 0 mm 3 mps 769 mmHg 80%
    06:00 +10°C° 0 mm 4 mps 769 mmHg 76%
    07:00 +11°C° 0 mm 4 mps 769 mmHg 71%
    08:00 +12°C° 0 mm 4 mps 769 mmHg 65%
    09:00 +14°C° 0 mm 4 mps 769 mmHg 58%
    10:00 +17°C° 0 mm 4 mps 769 mmHg 52%
    11:00 +18°C° 0 mm 4 mps 768 mmHg 49%
    12:00 +19°C° 0 mm 4 mps 768 mmHg 46%
    13:00 +20°C° 0 mm 4 mps 768 mmHg 43%
    14:00 +20°C° 0 mm 4 mps 768 mmHg 44%
    15:00 +20°C° 0 mm 5 mps 768 mmHg 46%
    16:00 +20°C° 0 mm 5 mps 767 mmHg 47%
    17:00 +18°C° 0 mm 4 mps 767 mmHg 53%
    18:00 +17°C° 0 mm 4 mps 768 mmHg 59%
    19:00 +15°C° 0 mm 4 mps 768 mmHg 66%
    20:00 +13°C° 0 mm 3 mps 768 mmHg 69%
    21:00 +12°C° 0 mm 3 mps 768 mmHg 73%
    22:00 +10°C° 0 mm 2 mps 768 mmHg 77%
    23:00 +9°C° 0 mm 2 mps 768 mmHg 79%

    29 May, Friday

    Time Temperature Precipitation Wind Pressure Humidity
    00:00 +9°C° 0 mm 2 mps 768 mmHg 80%
    01:00 +9°C° 0 mm 1 mps 768 mmHg 82%
    02:00 +9°C° 0 mm 1 mps 768 mmHg 83%
    03:00 +8°C° 0 mm 1 mps 768 mmHg 83%
    04:00 +8°C° 0 mm 1 mps 768 mmHg 84%
    05:00 +9°C° 0 mm 0 mps 768 mmHg 77%
    06:00 +10°C° 0 mm 0 mps 768 mmHg 69%
    07:00 +12°C° 0 mm 0 mps 768 mmHg 62%
    08:00 +14°C° 0 mm 0 mps 768 mmHg 57%
    09:00 +16°C° 0 mm 0 mps 768 mmHg 51%
    10:00 +20°C° 0 mm 1 mps 768 mmHg 46%
    11:00 +20°C° 0 mm 1 mps 767 mmHg 43%
    12:00 +21°C° 0 mm 1 mps 767 mmHg 41%
    13:00 +20°C° 0 mm 2 mps 766 mmHg 38%
    14:00 +20°C° 0 mm 2 mps 766 mmHg 39%
    15:00 +20°C° 0 mm 2 mps 766 mmHg 40%
    16:00 +20°C° 0 mm 2 mps 765 mmHg 40%
    17:00 +19°C° 0 mm 2 mps 765 mmHg 45%
    18:00 +18°C° 0 mm 2 mps 765 mmHg 51%
    19:00 +18°C° 0 mm 1 mps 765 mmHg 56%
    20:00 +16°C° 0 mm 1 mps 765 mmHg 59%
    21:00 +15°C° 0 mm 1 mps 765 mmHg 63%
    22:00 +14°C° 0 mm 1 mps 765 mmHg 66%
    23:00 +13°C° 0 mm 1 mps 765 mmHg 69%

    30 May, Saturday

    Time Temperature Precipitation Wind Pressure Humidity
    00:00 +12°C° 0 mm 1 mps 765 mmHg 73%
    01:00 +11°C° 0 mm 1 mps 766 mmHg 76%
    02:00 +11°C° 0 mm 1 mps 765 mmHg 77%
    03:00 +11°C° 0 mm 1 mps 765 mmHg 77%
    04:00 +10°C° 0 mm 1 mps 765 mmHg 78%
    05:00 +12°C° 0 mm 2 mps 765 mmHg 72%
    06:00 +14°C° 0 mm 2 mps 766 mmHg 67%
    07:00 +15°C° 0 mm 2 mps 766 mmHg 61%
    08:00 +17°C° 0 mm 2 mps 766 mmHg 55%
    09:00 +18°C° 0 mm 3 mps 766 mmHg 49%
    10:00 +19°C° 0 mm 3 mps 765 mmHg 43%
    11:00 +20°C° 0 mm 3 mps 765 mmHg 42%
    12:00 +20°C° 0 mm 3 mps 765 mmHg 41%
    13:00 +20°C° 0 mm 3 mps 765 mmHg 39%
    14:00 +20°C° 0 mm 3 mps 765 mmHg 44%
    15:00 +19°C° 0 mm 3 mps 765 mmHg 48%
    16:00 +18°C° 0 mm 3 mps 764 mmHg 53%
    17:00 +18°C° 0 mm 3 mps 764 mmHg 56%
    18:00 +17°C° 0 mm 2 mps 764 mmHg 59%
    19:00 +17°C° 0 mm 2 mps 764 mmHg 63%
    20:00 +15°C° 0 mm 2 mps 764 mmHg 67%
    21:00 +14°C° 0 mm 2 mps 764 mmHg 71%
    22:00 +12°C° 0 mm 2 mps 764 mmHg 76%
    23:00 +12°C° 0 mm 2 mps 764 mmHg 77%

    31 May, Sunday

    Time Temperature Precipitation Wind Pressure Humidity
    00:00 +12°C° 0 mm 2 mps 764 mmHg 79%
    01:00 +10°C° 0 mm 2 mps 764 mmHg 80%
    02:00 +10°C° 0 mm 2 mps 764 mmHg 81%
    03:00 +9°C° 0 mm 2 mps 764 mmHg 81%
    04:00 +8°C° 0 mm 2 mps 764 mmHg 82%
    05:00 +9°C° 0 mm 2 mps 764 mmHg 74%
    06:00 +10°C° 0 mm 3 mps 764 mmHg 67%
    07:00 +11°C° 0 mm 3 mps 764 mmHg 60%
    08:00 +13°C° 0 mm 3 mps 764 mmHg 56%
    09:00 +14°C° 0 mm 3 mps 764 mmHg 51%
    10:00 +17°C° 0 mm 3 mps 763 mmHg 47%
    11:00 +17°C° 0.1 mm 3 mps 763 mmHg 48%
    12:00 +18°C° 0.1 mm 3 mps 763 mmHg 49%
    13:00 +18°C° 0.1 mm 3 mps 763 mmHg 50%
    14:00 +18°C° 0.7 mm 4 mps 762 mmHg 56%
    15:00 +17°C° 0.7 mm 4 mps 762 mmHg 62%
    16:00 +16°C° 0.7 mm 5 mps 762 mmHg 69%
    17:00 +15°C° 0.5 mm 4 mps 761 mmHg 73%
    18:00 +15°C° 0.5 mm 4 mps 761 mmHg 77%
    19:00 +14°C° 0.5 mm 3 mps 761 mmHg 81%
    20:00 +13°C° 0.1 mm 3 mps 761 mmHg 83%
    21:00 +11°C° 0.1 mm 3 mps 762 mmHg 86%
    22:00 +10°C° 0.1 mm 3 mps 762 mmHg 89%
    23:00 +10°C° 0 mm 2 mps 762 mmHg 89%
    Show more